Flag for Germany Weather past 2 weeks in Plettenberg, North Rhine-Westphalia, Germany

Now
37 °F

Light rain. Partly sunny.


Feels Like: 31 °F
Forecast: 35 / 40 °F
Wind: 9 mph from West

Location: Dortmund / Wickede

Current Time: Jan 27, 2015 at 10:03:14 AM

Latest Report: Jan 27, 2015 at 9:20 AM


Visibility: N/A

Pressure: 30.15 "Hg

Humidity: 87%

Dew point: 34 °F

Location of PlettenbergLocation

Historic Weather in Plettenberg — Graph

°F

Plettenberg temperature yesterday

Maximum temperature yesterday: 41 °F (at 5:50 PM)
Minimum temperature yesterday: 36 °F (at 5:20 AM)
Average temperature yesterday: 38 °F

Past Weeks' High & Low Weather Summary

 TemperatureHumidityPressure
High52 °F (Jan 13, 12:20 PM)93% (Jan 17, 7:20 AM)30.39 "Hg (Jan 17, 7:20 AM)
Low27 °F (Jan 21, 8:20 AM)58% (Jan 13, 12:20 PM)29.42 "Hg (Jan 15, 4:20 PM)
Average37 °F80%29.93 "Hg
* Reported Jan 12 8:20 AM — Jan 27 8:50 AM, Plettenberg, Weather by CustomWeather, © 2014

Note: Actual official high and low records may vary slightly from our data, if they occured in-between our weather recording intervals... More about our weather records

Advertising

Plettenberg weather history for previous 24 hours

 ConditionsComfort  
Time TempWeatherWind HumidityBarometerVisibility
8:50 AM
Jan 27
37 °FLight rain. Broken clouds.8 mph87%30.15 "HgN/A
8:20 AM36 °FLight rain. Partly sunny.8 mph93%30.12 "HgN/A
7:50 AM36 °FLight rain. Partly cloudy.9 mph87%30.12 "HgN/A
7:20 AM36 °FLight rain. Partly cloudy.9 mph87%30.12 "HgN/A
6:50 AM36 °FPartly cloudy.10 mph87%30.12 "HgN/A
6:20 AM36 °FPartly cloudy.9 mph87%30.12 "HgN/A
5:50 AM36 °FPassing clouds.7 mph87%30.12 "HgN/A
5:20 AM36 °FPassing clouds.10 mph87%30.12 "HgN/A
10:50 PM
Jan 26
39 °FPassing clouds.8 mph87%30.07 "HgN/A
10:20 PM39 °FPassing clouds.9 mph87%30.07 "HgN/A
9:50 PM39 °FPassing clouds.8 mph87%30.07 "HgN/A
9:20 PM39 °FPassing clouds.8 mph87%30.07 "HgN/A
8:50 PM39 °FPassing clouds.7 mph87%30.07 "HgN/A
8:20 PM41 °FPassing clouds.8 mph81%30.04 "HgN/A
7:50 PM41 °FPassing clouds.9 mph81%30.04 "HgN/A
7:20 PM41 °FPassing clouds.10 mph87%30.04 "HgN/A
6:50 PM41 °FPassing clouds.8 mph87%30.01 "HgN/A
6:20 PM41 °FLight rain. Passing clouds.10 mph93%30.01 "HgN/A
5:50 PM41 °FLight rain. Low clouds.9 mph87%30.01 "Hg4 mi
5:20 PM39 °FDrizzle. Fog.12 mph93%29.98 "Hg1 mi
4:50 PM39 °FDrizzle. Fog.14 mph93%29.98 "Hg2 mi
4:20 PM39 °FDrizzle. Low clouds.12 mph93%29.98 "Hg2 mi
3:50 PM39 °FDrizzle. Low clouds.13 mph93%30.01 "Hg4 mi
3:20 PM39 °FDrizzle. Fog.15 mph87%30.01 "Hg3 mi
2:50 PM39 °FDrizzle. Low clouds.14 mph87%30.01 "Hg4 mi
2:20 PM39 °FDrizzle. Fog.14 mph87%30.01 "Hg2 mi
1:50 PM37 °FFog.13 mph93%30.04 "Hg2 mi
1:20 PM37 °FFog.14 mph93%30.04 "Hg3 mi
12:50 PM37 °FBroken clouds.15 mph87%30.07 "HgN/A
12:20 PM37 °FLight rain. Broken clouds.13 mph87%30.07 "HgN/A
11:50 AM37 °FPartly sunny.13 mph87%30.09 "Hg6 mi
11:20 AM37 °FSprinkles. Partly sunny.15 mph87%30.09 "Hg6 mi
10:50 AM37 °FBroken clouds.14 mph87%30.12 "Hg6 mi
10:20 AM37 °FBroken clouds.14 mph87%30.12 "HgN/A
Weather by CustomWeather, © 2014

See weather overviewHow to use our weather pages